Regional Weather Roundup
Issued by NWS

Home | Current Version | Previous Version | Text Only | Print | Product List | Glossary Off
Versions: 1 2 3 4 5 6 7 8 9 10 11 12 13 14 15 16 17 18 19 20 21 22 23 24 25 26 27 28 29 30 31 32 33 34 35 36 37 38 39 40 41 42 43 44 45 46 47 48 49 50

000
ASUS44 KMEG 221710
RWRTN
TENNESSEE HOURLY STATE WEATHER ROUNDUP
NATIONAL WEATHER SERVICE MEMPHIS TN
1200 PM CDT FRI JUL 22 2016

TNZ002-004-019-021-049-052-054-088>092-221800-
WEST TENNESSEE

CITY           SKY/WX    TMP DP  RH WIND       PRES   REMARKS
MEMPHIS INTL   MOSUNNY   95  76  53 SW6       30.09R HX 108
NWS MEMPHIS      N/A     93 N/A N/A MISG        N/A
JACKSON        MOSUNNY   95  76  53 VRB5      30.08S HX 108
DYERSBURG      MOSUNNY   93  79  62 MISG      30.06F HX 110
UNION CITY     SUNNY     91  81  70 W7        30.06S HX 110
PARIS          SUNNY     90  77  66 SW5       30.08F HX 102
LEXINGTON      MOSUNNY   93  73  52 E5        30.08F HX 102
$$

TNZ008-025-027-028-033-062-065-066-221800-
NORTH MIDDLE TENNESSEE

CITY           SKY/WX    TMP DP  RH WIND       PRES   REMARKS
NASHVILLE      CLOUDY    93  69  45 N6        30.09F HX  98
CLARKSVILLE    PTSUNNY   88  76  67 W6        30.08S HX  99
SMYRNA         MOSUNNY   94  73  50 VRB5      30.09F HX 103
COOKEVILLE     SUNNY     90  75  62 CALM      30.12S HX 100
CROSSVILLE     MOSUNNY   84  70  62 N6        30.18R
$$

TNZ061-075-076-078-094-096-097-221800-
SOUTH MIDDLE TENNESSEE

CITY           SKY/WX    TMP DP  RH WIND       PRES   REMARKS
FAYETTEVILLE   MOSUNNY   90  73  58 VRB5      30.12R HX  98
TULLAHOMA      PTSUNNY   88  70  55 NW5       30.14R HX  92
WINCHESTER     SUNNY     91  72  52 SW7       30.12R HX  98
MCMINNVILLE    SUNNY     88  73  62 VRB3      30.13S HX  96
COLUMBIA       MOSUNNY   93  75  55 NE6       30.09S HX 104
SHELBYVILLE    MOSUNNY   93  77  59 VRB6      30.12S HX 107
$$

TNZ017-018-042-046-047-221800-
NORTHEAST TENNESSEE

CITY           SKY/WX    TMP DP  RH WIND       PRES   REMARKS
TRI CITIES     MOSUNNY   87  67  51 CALM      30.15F HX  90
ELIZABETHTON   MOSUNNY   86  68  54 VRB5      30.15S
$$

TNZ012-013-036-069-073-074-221800-
CENTRAL EAST TENNESSEE

CITY           SKY/WX    TMP DP  RH WIND       PRES   REMARKS
KNOXVILLE      PTSUNNY   88  70  55 W3        30.10F HX  93
OAK RIDGE      SUNNY     90  71  53 CALM      30.11S HX  96
GATLINBURG       N/A     90  70  51 VRB6      30.10S HX  95
MORRISTOWN     SUNNY     88  70  55 N9        30.12S HX  92
$$

TNZ083-085-099-221800-
SOUTHEAST TENNESSEE

CITY           SKY/WX    TMP DP  RH WIND       PRES   REMARKS
CHATTANOOGA    CLOUDY    91  70  49 SW5       30.11R HX  96
$$

SKY/WX REPORTED AS FAIR MEANS FEW OR NO CLOUDS BELOW
12 THOUSAND FEET.





USA.gov is the U.S. government's official web portal to all federal, state and local government web resources and services.